Flag for Norway Weather past 2 weeks in Spydeberg, Norway

Now
37 °F

Low clouds.


Feels Like: 31 °F
Forecast: 30 / 35 °F
Wind: 8 mph from Southwest

Location: Rygge

Current Time: Jan 28, 2015 at 2:44:09 AM

Latest Report: Jan 28, 2015 at 1:50 AM


Visibility: N/A

Pressure: 29.56 "Hg

Humidity: 93%

Dew point: 36 °F

Location of SpydebergLocation

Historic Weather in Spydeberg — Graph

°F

Spydeberg temperature yesterday

Maximum temperature yesterday: 39 °F (at 9:20 PM)
Minimum temperature yesterday: 28 °F (at 5:58 AM)
Average temperature yesterday: 33 °F

Past Weeks' High & Low Weather Summary

 TemperatureHumidityPressure
High45 °F (Jan 16, 12:50 PM)100% (Jan 15, 1:50 PM)30.24 "Hg (Jan 15, 1:50 PM)
Low10 °F (Jan 23, 7:50 AM)65% (Jan 13, 4:20 AM)28.85 "Hg (Jan 16, 6:50 AM)
Average33 °F89%29.71 "Hg
* Reported Jan 13 1:20 AM — Jan 28 1:20 AM, Spydeberg, Weather by CustomWeather, © 2014

Note: Actual official high and low records may vary slightly from our data, if they occured in-between our weather recording intervals... More about our weather records

Advertising

Spydeberg weather history for previous 24 hours

 ConditionsComfort  
Time TempWeatherWind HumidityBarometerVisibility
1:20 AM
Jan 28
37 °FPassing clouds.6 mph93%29.56 "HgN/A
12:50 AM37 °FPassing clouds.9 mph93%29.59 "HgN/A
12:20 AM37 °FOvercast.8 mph93%29.62 "HgN/A
11:50 PM
Jan 27
37 °FOvercast.10 mph93%29.62 "HgN/A
11:20 PM39 °FPassing clouds.13 mph87%29.65 "HgN/A
10:50 PM37 °FClear.12 mph87%29.65 "Hg10 mi
10:20 PM39 °FClear.9 mph81%29.68 "Hg10 mi
9:50 PM39 °FPassing clouds.9 mph81%29.71 "HgN/A
9:20 PM39 °FClear.10 mph81%29.71 "Hg10 mi
8:50 PM37 °FClear.7 mph81%29.74 "Hg10 mi
8:20 PM37 °FClear.9 mph81%29.74 "Hg10 mi
7:50 PM37 °FClear.8 mph75%29.77 "Hg10 mi
7:20 PM36 °FClear.6 mph81%29.77 "Hg10 mi
6:50 PM36 °FClear.7 mph81%29.80 "Hg10 mi
6:20 PM36 °FClear.9 mph81%29.80 "Hg10 mi
5:50 PM34 °FClear.8 mph87%29.80 "Hg10 mi
5:20 PM34 °FClear.9 mph87%29.80 "Hg10 mi
4:50 PM34 °FClear.8 mph87%29.83 "Hg10 mi
4:20 PM34 °FSunny.9 mph81%29.83 "Hg10 mi
3:50 PM36 °FSunny.6 mph75%29.83 "Hg10 mi
3:20 PM36 °FSunny.9 mph81%29.83 "Hg10 mi
2:50 PM36 °FSunny.7 mph81%29.83 "Hg10 mi
2:20 PM36 °FPassing clouds.6 mph81%29.86 "HgN/A
1:50 PM36 °FSunny.7 mph81%29.86 "Hg10 mi
1:20 PM36 °FClear.3 mph81%29.86 "HgN/A
12:50 PM36 °FPassing clouds.3 mph75%29.86 "HgN/A
12:20 PM34 °FSunny.1 mph81%29.86 "Hg10 mi
11:50 AM34 °FSunny.1 mph81%29.86 "Hg10 mi
11:20 AM34 °FSunny.No wind81%29.86 "Hg10 mi
10:50 AM32 °FSunny.1 mph87%29.86 "Hg10 mi
10:20 AM30 °FSunny.1 mph80%29.86 "Hg10 mi
9:50 AM30 °FSunny.5 mph80%29.86 "Hg10 mi
9:20 AM30 °FSunny.2 mph80%29.86 "Hg10 mi
8:50 AM28 °FSunny.3 mph86%29.86 "Hg10 mi
8:20 AM28 °FClear.2 mph93%29.86 "Hg10 mi
7:50 AM28 °FClear.2 mph86%29.83 "Hg10 mi
7:20 AM28 °FClear.5 mph93%29.83 "Hg10 mi
6:50 AM30 °FPassing clouds.3 mph86%29.83 "HgN/A
6:20 AM28 °FClear.5 mph93%29.80 "Hg10 mi
5:58 AM28 °FClear.3 mph93%29.80 "Hg10 mi
5:20 AM30 °FChilly.6 mph86%29.77 "HgN/A
4:50 AM32 °FChilly.12 mph80%29.77 "HgN/A
4:20 AM32 °FChilly.9 mph87%29.77 "HgN/A
3:50 AM30 °FChilly.8 mph93%29.77 "HgN/A
3:20 AM30 °FChilly.7 mph100%29.77 "HgN/A
2:50 AM30 °FChilly.6 mph93%29.77 "HgN/A
2:20 AM30 °FChilly.6 mph100%29.74 "HgN/A
Weather by CustomWeather, © 2014

See weather overviewHow to use our weather pages